Galliano, LA

3:46 AM CDT on July 28, 2017 (GMT -0500)
Galliano

Weather History for KGAO - January, 2013

Change the Weather History Date:

Tuesday, January 8, 2013

  Actual Average (KHUM) Record (KHUM)
Temperature  
Mean Temperature 58 °F -  
Max Temperature 62 °F 63 °F 81 °F (1937)
Min Temperature 53 °F 43 °F 21 °F (1970)
Degree Days  
Heating Degree Days 8    
Growing Degree Days 8 (Base 50)    
Moisture  
Dew Point 56 °F    
Average Humidity 95    
Maximum Humidity 100    
Minimum Humidity 88    
Precipitation  
Precipitation 0.10 in - - ()
Sea Level Pressure  
Sea Level Pressure 30.11 in    
Wind  
Wind Speed 9 mph (NE)    
Max Wind Speed 16 mph    
Max Gust Speed 23 mph    
Visibility 7 miles    
Events Rain , Thunderstorm    
Averages and records for this station are not official NWS values.
T = Trace of Precipitation, MM = Missing Value Source: NWS Daily Summary

Daily Weather History Graph

Daily Weather History Graph

Search for Another Location

Airport or City:

Trip Planner

Search our weather history database for the weather conditions in past years. The results will help you decide how hot, cold, wet, or windy it might be!

Date:

Astronomy

Jan. 08, 2013 Rise Set
Actual Time 6:56 AM CST 5:19 PM CST
Civil Twilight 6:30 AM CST 5:45 PM CST
Nautical Twilight 6:01 AM CST 6:14 PM CST
Astronomical Twilight 5:32 AM CST 6:43 PM CST
Moon 3:31 AM CST (1/8) 2:20 PM CST (1/8)
Length of Visible Light 11h 14m
Length of Day
10h 22m
Waning Crescent, 13% of the Moon is Illuminated
Jan 8
Waning Crescent
Jan 11
New
Jan 18
First Quarter
Jan 26
Full
Feb 3
Last Quarter

Hourly Weather History & Observations

Time (CST) Temp. Dew Point Humidity Pressure Visibility Wind Dir Wind Speed Gust Speed Precip Events Conditions
12:15 AM 55.4 °F 51.8 °F 88% 30.16 in 10.0 mi NE 5.8 mph - N/A   Unknown
12:55 AM 55.4 °F 51.8 °F 88% 30.15 in 10.0 mi NE 8.1 mph - N/A   Unknown
1:15 AM 55.4 °F 51.8 °F 88% 30.13 in 10.0 mi NE 8.1 mph - N/A   Unknown
1:35 AM 55.4 °F 51.8 °F 88% 30.13 in 10.0 mi ENE 6.9 mph - N/A   Unknown
1:55 AM 55.4 °F 53.6 °F 94% 30.12 in 10.0 mi ENE 6.9 mph - N/A   Unknown
2:15 AM 57.2 °F 53.6 °F 88% 30.12 in 10.0 mi NE 8.1 mph - N/A   Unknown
2:35 AM 57.2 °F 53.6 °F 88% 30.11 in 10.0 mi NE 9.2 mph - N/A   Unknown
2:55 AM 55.4 °F 51.8 °F 88% 30.11 in 10.0 mi NNE 8.1 mph - N/A   Unknown
3:15 AM 55.4 °F 51.8 °F 88% 30.10 in 10.0 mi NE 8.1 mph - N/A   Unknown
3:35 AM 55.4 °F 51.8 °F 88% 30.11 in 10.0 mi NNE 5.8 mph - N/A   Unknown
3:55 AM 55.4 °F 51.8 °F 88% 30.10 in 10.0 mi NNE 8.1 mph - N/A   Unknown
4:15 AM 55.4 °F 51.8 °F 88% 30.10 in 10.0 mi NNE 9.2 mph - N/A   Unknown
4:35 AM 53.6 °F 51.8 °F 94% 30.10 in 10.0 mi NNE 6.9 mph - N/A   Unknown
4:55 AM 53.6 °F 51.8 °F 94% 30.10 in 10.0 mi NNE 6.9 mph - N/A   Unknown
5:15 AM 53.6 °F 51.8 °F 94% 30.10 in 10.0 mi NNE 6.9 mph - N/A   Unknown
5:35 AM 53.6 °F 51.8 °F 94% 30.11 in 10.0 mi NNE 6.9 mph - N/A   Unknown
5:55 AM 53.6 °F 51.8 °F 94% 30.11 in 10.0 mi NE 5.8 mph - N/A   Unknown
6:15 AM 53.6 °F 53.6 °F 100% 30.12 in 10.0 mi NNE 6.9 mph - N/A   Unknown
6:35 AM 55.4 °F 53.6 °F 94% 30.12 in 10.0 mi NNE 6.9 mph - N/A   Unknown
6:55 AM 55.4 °F 53.6 °F 94% 30.12 in 10.0 mi NE 8.1 mph - N/A   Unknown
7:15 AM 55.4 °F 53.6 °F 94% 30.14 in 10.0 mi NE 8.1 mph - N/A   Unknown
7:35 AM 55.4 °F 53.6 °F 94% 30.14 in 10.0 mi NE 8.1 mph - N/A   Unknown
8:15 AM 57.2 °F 55.4 °F 94% 30.16 in 10.0 mi NE 8.1 mph - N/A   Unknown
8:35 AM 59.0 °F 57.2 °F 94% 30.16 in 10.0 mi NE 10.4 mph - N/A   Unknown
8:55 AM 60.8 °F 57.2 °F 88% 30.17 in 10.0 mi NE 9.2 mph - N/A   Unknown
9:15 AM 60.8 °F 57.2 °F 88% 30.17 in 10.0 mi NE 10.4 mph 16.1 mph N/A   Unknown
9:35 AM 60.8 °F 59.0 °F 94% 30.17 in 10.0 mi NE 9.2 mph - N/A   Unknown
9:55 AM 60.8 °F 59.0 °F 94% 30.18 in 10.0 mi NE 9.2 mph - N/A   Unknown
10:15 AM 62.6 °F 59.0 °F 88% 30.18 in - NE 8.1 mph 17.3 mph N/A   Unknown
10:35 AM 62.6 °F 59.0 °F 88% 30.18 in 10.0 mi NE 9.2 mph - N/A   Unknown
10:55 AM 62.6 °F 59.0 °F 88% 30.17 in 10.0 mi NE 10.4 mph - N/A   Unknown
11:15 AM 62.6 °F 59.0 °F 88% 30.16 in 10.0 mi NE 10.4 mph 16.1 mph N/A   Unknown
11:35 AM 62.6 °F 59.0 °F 88% 30.14 in 10.0 mi NE 11.5 mph - N/A   Unknown
11:55 AM 62.6 °F 60.8 °F 94% 30.12 in 10.0 mi NE 11.5 mph 16.1 mph N/A Rain Light Rain
12:15 PM 62.6 °F 60.8 °F 94% 30.12 in 7.0 mi NE 6.9 mph 17.3 mph N/A Rain Light Rain
12:35 PM 62.6 °F 60.8 °F 94% 30.11 in 7.0 mi NNE 9.2 mph - N/A Rain Light Rain
12:55 PM 62.6 °F 60.8 °F 94% 30.10 in 7.0 mi NNE 10.4 mph - N/A   Overcast
1:15 PM 62.6 °F 62.6 °F 100% 30.10 in 5.0 mi NE 11.5 mph 17.3 mph N/A   Overcast
1:55 PM 62.6 °F 62.6 °F 100% 30.08 in 4.0 mi NE 9.2 mph 16.1 mph N/A Rain Light Rain
2:15 PM 62.6 °F 62.6 °F 100% 30.08 in 2.5 mi NE 11.5 mph 16.1 mph N/A   Overcast
2:35 PM 60.8 °F 60.8 °F 100% 30.07 in 1.0 mi NE 9.2 mph 17.3 mph N/A   Overcast
2:55 PM 60.8 °F 60.8 °F 100% 30.07 in 1.0 mi NE 10.4 mph - N/A   Overcast
3:15 PM 59.0 °F 59.0 °F 100% 30.07 in 0.8 mi NNE 8.1 mph - N/A   Overcast
3:35 PM 59.0 °F 59.0 °F 100% 30.07 in 1.2 mi NE 5.8 mph - N/A Rain Rain
3:55 PM 57.2 °F 57.2 °F 100% 30.06 in 2.0 mi NE 10.4 mph - 0.02 in Rain Rain
4:15 PM 57.2 °F 57.2 °F 100% 30.05 in 2.0 mi NE 9.2 mph - 0.01 in Rain Light Rain
4:35 PM 55.4 °F 55.4 °F 100% 30.06 in 2.0 mi ENE 10.4 mph - 0.01 in   Overcast
4:55 PM 55.4 °F 55.4 °F 100% 30.05 in 3.0 mi NE 10.4 mph - 0.01 in   Overcast
5:15 PM 55.4 °F 55.4 °F 100% 30.05 in 4.0 mi NE 10.4 mph - N/A   Overcast
5:35 PM 55.4 °F 55.4 °F 100% 30.06 in 4.0 mi NE 9.2 mph 16.1 mph N/A   Overcast
5:55 PM 55.4 °F 55.4 °F 100% 30.06 in 3.0 mi ENE 10.4 mph - N/A   Overcast
6:15 PM 55.4 °F 55.4 °F 100% 30.05 in 3.0 mi NE 12.7 mph - 0.01 in Rain Light Rain
6:35 PM 55.4 °F 55.4 °F 100% 30.05 in 2.5 mi ENE 12.7 mph 19.6 mph 0.02 in Rain Light Rain
6:55 PM 55.4 °F 55.4 °F 100% 30.05 in 3.0 mi ENE 16.1 mph 23.0 mph 0.02 in Rain Light Rain
7:15 PM 55.4 °F 55.4 °F 100% 30.05 in 4.0 mi ENE 15.0 mph 19.6 mph 0.01 in Rain , Thunderstorm Light Thunderstorms and Rain
7:55 PM 55.4 °F 55.4 °F 100% 30.07 in 4.0 mi ENE 11.5 mph 19.6 mph 0.03 in Rain Rain
8:15 PM 55.4 °F 55.4 °F 100% 30.07 in 5.0 mi ENE 11.5 mph 18.4 mph 0.01 in Rain Light Rain
8:35 PM 55.4 °F 55.4 °F 100% 30.08 in 5.0 mi East 10.4 mph - 0.01 in Rain Light Rain
8:55 PM 55.4 °F 55.4 °F 100% 30.08 in 5.0 mi East 10.4 mph 19.6 mph 0.01 in   Overcast
9:15 PM 55.4 °F 55.4 °F 100% 30.08 in 5.0 mi ENE 12.7 mph 18.4 mph N/A   Mist
9:35 PM 55.4 °F 55.4 °F 100% 30.10 in 5.0 mi East 11.5 mph 17.3 mph N/A Rain Light Rain
10:15 PM 57.2 °F 57.2 °F 100% 30.10 in 5.0 mi East 8.1 mph - N/A Rain Light Rain
10:35 PM 57.2 °F 57.2 °F 100% 30.10 in 5.0 mi East 10.4 mph 17.3 mph N/A Rain Light Rain
11:15 PM 57.2 °F 57.2 °F 100% 30.10 in 5.0 mi East 13.8 mph 20.7 mph N/A Rain Light Rain
11:55 PM 59.0 °F 59.0 °F 100% 30.10 in 5.0 mi East 9.2 mph - 0.01 in Rain Light Rain